Total_Precipitation_Accumulation
1.63 1.89 2.23 2.60 2.82 2.96 3.00 3.12 3.09 2.66 2.07 1.57 1.11 0.84 0.72 0.60 0.45 0.34 0.34 0.36 0.35 0.37 0.44 0.36 0.37 0.34 0.30 0.31 0.34 0.38 0.38 0.36 0.35 0.42 0.46 0.40 0.37 0.38 0.33 0.36 0.42 0.48 0.56
1.17 1.29 1.49 1.79 1.88 2.06 2.28 2.42 2.38 2.05 1.52 1.25 0.99 0.85 0.75 0.61 0.47 0.35 0.31 0.28 0.27 0.29 0.34 0.40 0.31 0.31 0.31 0.31 0.30 0.33 0.31 0.27 0.28 0.36 0.40 0.38 0.40 0.39 0.23 0.30 0.35 0.39 0.51
0.77 0.80 0.90 1.09 1.37 1.77 1.84 1.74 1.74 1.62 1.32 1.16 0.99 0.88 0.80 0.67 0.53 0.41 0.32 0.25 0.22 0.23 0.26 0.29 0.30 0.33 0.28 0.31 0.36 0.34 0.32 0.25 0.22 0.27 0.35 0.35 0.35 0.38 0.35 0.32 0.33 0.37 0.50
0.44 0.55 0.61 0.72 0.94 1.20 1.40 1.52 1.52 1.46 1.21 1.01 0.82 0.67 0.55 0.45 0.37 0.32 0.31 0.26 0.24 0.20 0.18 0.17 0.21 0.28 0.29 0.36 0.28 0.31 0.34 0.30 0.23 0.22 0.24 0.24 0.26 0.31 0.36 0.36 0.32 0.35 0.41
0.21 0.34 0.44 0.53 0.63 0.79 1.06 1.27 1.45 1.53 1.23 0.96 0.78 0.67 0.57 0.47 0.40 0.34 0.34 0.28 0.27 0.25 0.21 0.19 0.18 0.19 0.23 0.29 0.31 0.37 0.35 0.35 0.30 0.24 0.21 0.22 0.20 0.20 0.20 0.27 0.31 0.29 0.22
0.13 0.22 0.28 0.38 0.52 0.63 0.77 0.92 1.12 1.31 1.21 0.99 0.80 0.70 0.64 0.56 0.47 0.36 0.31 0.30 0.32 0.33 0.31 0.28 0.28 0.27 0.24 0.21 0.22 0.26 0.33 0.38 0.39 0.30 0.23 0.25 0.23 0.17 0.17 0.14 0.16 0.22 0.17
0.08 0.12 0.17 0.22 0.37 0.46 0.49 0.55 0.74 0.90 0.91 0.85 0.77 0.71 0.74 0.71 0.62 0.49 0.40 0.36 0.33 0.34 0.34 0.32 0.32 0.34 0.33 0.29 0.23 0.19 0.23 0.31 0.36 0.34 0.29 0.24 0.18 0.19 0.21 0.18 0.12 0.12 0.11
0.06 0.06 0.09 0.16 0.23 0.29 0.34 0.38 0.51 0.64 0.71 0.67 0.67 0.64 0.61 0.56 0.58 0.60 0.50 0.44 0.42 0.38 0.34 0.32 0.30 0.32 0.35 0.36 0.32 0.26 0.24 0.25 0.29 0.31 0.36 0.31 0.16 0.16 0.21 0.22 0.22 0.19 0.15
0.08 0.06 0.07 0.12 0.15 0.19 0.23 0.27 0.38 0.48 0.53 0.54 0.55 0.53 0.52 0.47 0.46 0.43 0.38 0.35 0.44 0.44 0.38 0.33 0.30 0.31 0.33 0.36 0.37 0.35 0.33 0.30 0.27 0.31 0.38 0.36 0.26 0.18 0.16 0.21 0.27 0.30 0.25
0.08 0.09 0.10 0.11 0.13 0.17 0.22 0.25 0.31 0.39 0.43 0.47 0.46 0.46 0.52 0.52 0.53 0.46 0.40 0.33 0.32 0.34 0.37 0.36 0.31 0.29 0.31 0.36 0.40 0.43 0.47 0.48 0.43 0.38 0.40 0.40 0.38 0.34 0.27 0.25 0.28 0.32 0.32
0.07 0.09 0.10 0.09 0.11 0.15 0.19 0.19 0.28 0.35 0.39 0.45 0.47 0.49 0.50 0.50 0.52 0.54 0.50 0.41 0.36 0.34 0.33 0.33 0.30 0.27 0.26 0.30 0.35 0.38 0.48 0.60 0.68 0.64 0.55 0.50 0.50 0.49 0.42 0.38 0.35 0.34 0.38
0.07 0.09 0.10 0.09 0.08 0.12 0.16 0.17 0.21 0.25 0.28 0.37 0.47 0.47 0.49 0.55 0.52 0.48 0.53 0.52 0.49 0.48 0.45 0.40 0.36 0.32 0.27 0.28 0.31 0.33 0.38 0.50 0.67 0.81 0.83 0.72 0.65 0.60 0.51 0.46 0.43 0.42 0.46
0.10 0.10 0.12 0.15 0.11 0.12 0.16 0.20 0.23 0.26 0.29 0.37 0.46 0.53 0.56 0.63 0.64 0.59 0.59 0.60 0.57 0.55 0.58 0.56 0.52 0.48 0.43 0.39 0.38 0.37 0.35 0.37 0.47 0.63 0.82 0.90 0.85 0.71 0.65 0.57 0.51 0.49 0.47
0.12 0.13 0.16 0.19 0.15 0.14 0.19 0.22 0.28 0.32 0.40 0.52 0.62 0.65 0.71 0.79 0.81 0.73 0.71 0.70 0.72 0.70 0.72 0.75 0.68 0.59 0.53 0.49 0.50 0.49 0.47 0.48 0.50 0.52 0.59 0.72 0.87 0.84 0.77 0.69 0.63 0.61 0.62
0.17 0.21 0.28 0.29 0.28 0.27 0.27 0.30 0.41 0.50 0.64 0.81 0.84 0.81 0.82 0.87 0.91 0.93 0.94 0.96 1.00 1.00 1.00 0.94 0.85 0.79 0.73 0.63 0.68 0.75 0.74 0.75 0.65 0.56 0.51 0.51 0.61 0.73 0.78 0.71 0.67 0.69 0.70
0.25 0.27 0.37 0.44 0.45 0.43 0.45 0.54 0.65 0.79 0.99 1.19 1.20 1.21 1.21 1.22 1.24 1.23 1.21 1.22 1.21 1.21 1.16 1.09 1.06 1.01 0.88 0.87 0.84 0.80 0.79 0.83 0.80 0.69 0.61 0.53 0.49 0.53 0.63 0.69 0.71 0.71 0.69
0.37 0.36 0.45 0.57 0.64 0.63 0.62 0.70 0.80 0.94 1.07 1.17 1.15 1.17 1.23 1.27 1.28 1.29 1.30 1.25 1.21 1.18 1.14 1.15 1.14 1.08 1.02 0.90 0.73 0.61 0.63 0.67 0.71 0.74 0.72 0.54 0.43 0.48 0.54 0.62 0.64 0.61 0.57
0.38 0.43 0.53 0.59 0.63 0.68 0.70 0.78 0.84 0.85 0.96 1.00 0.96 0.96 0.99 0.99 1.00 1.06 1.10 1.09 1.10 1.09 1.06 1.01 0.90 0.82 0.72 0.63 0.54 0.50 0.54 0.57 0.56 0.64 0.71 0.66 0.56 0.52 0.55 0.54 0.51 0.49 0.47
0.42 0.47 0.54 0.54 0.57 0.61 0.66 0.66 0.71 0.74 0.79 0.83 0.82 0.78 0.79 0.79 0.81 0.86 0.91 0.96 0.96 0.88 0.78 0.70 0.68 0.67 0.64 0.61 0.50 0.45 0.51 0.57 0.53 0.54 0.58 0.62 0.58 0.50 0.42 0.44 0.40 0.38 0.38
0.35 0.45 0.56 0.55 0.52 0.52 0.54 0.56 0.59 0.63 0.68 0.75 0.80 0.77 0.76 0.76 0.75 0.77 0.78 0.75 0.74 0.70 0.65 0.58 0.57 0.59 0.62 0.61 0.46 0.42 0.49 0.56 0.55 0.58 0.63 0.67 0.60 0.47 0.34 0.39 0.43 0.36 0.32
0.32 0.38 0.48 0.58 0.56 0.56 0.57 0.60 0.58 0.58 0.59 0.63 0.68 0.68 0.67 0.67 0.66 0.66 0.65 0.64 0.64 0.61 0.55 0.49 0.49 0.52 0.51 0.46 0.33 0.30 0.38 0.45 0.49 0.48 0.50 0.60 0.55 0.42 0.30 0.32 0.37 0.32 0.33
0.23 0.30 0.38 0.47 0.54 0.59 0.63 0.64 0.60 0.57 0.55 0.59 0.60 0.58 0.59 0.59 0.58 0.59 0.57 0.55 0.53 0.50 0.45 0.43 0.43 0.47 0.49 0.39 0.29 0.19 0.22 0.32 0.40 0.50 0.53 0.61 0.58 0.44 0.36 0.31 0.30 0.25 0.23
0.17 0.19 0.26 0.35 0.41 0.52 0.61 0.66 0.64 0.62 0.62 0.63 0.63 0.59 0.56 0.58 0.61 0.62 0.62 0.60 0.56 0.54 0.49 0.44 0.37 0.36 0.42 0.40 0.22 0.16 0.15 0.22 0.35 0.55 0.70 0.74 0.70 0.60 0.49 0.43 0.40 0.31 0.26
0.17 0.19 0.24 0.30 0.33 0.39 0.48 0.57 0.62 0.66 0.67 0.64 0.59 0.56 0.55 0.55 0.58 0.65 0.67 0.65 0.61 0.56 0.48 0.44 0.41 0.40 0.43 0.43 0.36 0.28 0.20 0.20 0.28 0.48 0.66 0.79 0.85 0.81 0.70 0.61 0.55 0.42 0.35
0.23 0.24 0.25 0.26 0.29 0.33 0.38 0.46 0.53 0.58 0.59 0.60 0.58 0.54 0.50 0.49 0.50 0.53 0.54 0.48 0.48 0.43 0.39 0.37 0.38 0.39 0.39 0.31 0.23 0.21 0.21 0.21 0.24 0.39 0.66 0.87 1.01 1.05 1.03 0.91 0.82 0.70 0.58
0.31 0.30 0.31 0.30 0.29 0.32 0.36 0.38 0.45 0.55 0.62 0.62 0.56 0.51 0.46 0.44 0.44 0.43 0.43 0.40 0.34 0.31 0.30 0.31 0.28 0.25 0.24 0.20 0.15 0.13 0.14 0.15 0.20 0.38 0.64 0.87 1.04 1.11 1.23 1.24 1.16 0.99 0.84